Location: Br�ttisellen
(47.4227°N, 8.6287°E)
Time: 23:34:55
(UTC+00:00)

Cosmos 540 Rocket - Pass Details

Date: 09 April 2020
Orbit: 741 x 753 km, 74.1° (Epoch: 29 May)

Event Time Altitude Azimuth Distance (km) Brightness Sun altitude
Rises 21:27:18 0° 333° (NNW) 3,212 7.9 -28.6°
Reaches altitude 10° 21:29:43 10° 328° (NNW) 2,282 6.9 -28.8°
Enters shadow 21:34:17 49° 272° (W) 965 4.1 -29.2°
